Location: Julian California
(33.0790°N, 116.6010°W)
Time: 16:45:13
(UTC-07:00)

Cosmos 1697 Rocket - Visible Passes

Search period start: 21 March 2019 00:00
Search period end: 31 March 2019 00:00
Orbit: 832 x 844 km, 71.0° (Epoch: 20 March)

Date Brightness Start Highest point End Pass type
(mag) Time Alt. Az. Time Alt. Az. Time Alt. Az.
21 Mar 4.4 05:35:20 10° N 05:40:27 35° ENE 05:45:31 10° SE visible
21 Mar 3.5 20:20:56 10° SW 20:26:26 54° WNW 20:31:59 10° N visible
22 Mar 4.5 05:19:14 10° N 05:24:15 32° ENE 05:29:14 10° SE visible
22 Mar 3.3 20:04:43 10° SSW 20:10:16 59° WNW 20:15:51 10° NNE visible
23 Mar 4.6 05:03:09 10° N 05:08:03 30° ENE 05:12:55 10° ESE visible
23 Mar 3.2 19:48:30 10° SSW 19:54:05 64° WNW 19:59:42 10° NNE visible
24 Mar 4.7 04:47:04 10° N 04:51:51 28° ENE 04:56:35 10° ESE visible
24 Mar 3.1 19:32:17 10° SSW 19:37:54 70° WNW 19:43:33 10° NNE visible
25 Mar 4.8 04:31:01 10° N 04:35:39 26° ENE 04:40:14 10° ESE visible
25 Mar 3.2 06:14:33 10° NW 06:19:36 35° WSW 06:24:37 10° SSW visible
26 Mar 4.9 04:14:57 10° N 04:19:26 24° ENE 04:23:52 10° ESE visible
26 Mar 3.1 05:58:18 10° NW 06:03:27 38° WSW 06:08:34 10° S visible
27 Mar 4.9 03:58:55 10° N 04:03:13 22° ENE 04:07:29 10° ESE visible
27 Mar 3.0 05:42:03 10° NW 05:47:18 42° WSW 05:52:31 10° S visible
27 Mar 5.9 20:32:52 10° WNW 20:34:06 11° NW 20:35:20 10° NW visible
28 Mar 5.0 03:42:52 10° NNE 03:47:00 20° ENE 03:51:05 10° ESE visible
28 Mar 2.9 05:25:49 10° NW 05:31:08 46° WSW 05:36:26 10° S visible
28 Mar 5.8 20:15:56 10° WNW 20:17:51 12° NW 20:19:47 10° NW visible
29 Mar 5.1 03:26:51 10° NNE 03:30:46 19° ENE 03:34:40 10° ESE visible
29 Mar 2.8 05:09:35 10° NNW 05:14:59 50° WSW 05:20:21 10° S visible
29 Mar 5.7 19:59:12 10° W 20:01:37 13° NW 20:04:02 10° NNW visible
30 Mar 5.1 03:10:52 10° NNE 03:14:33 18° ENE 03:18:13 10° E visible
30 Mar 2.7 04:53:22 10° NNW 04:58:50 54° WSW 05:04:15 10° S visible
30 Mar 5.7 19:42:34 10° W 19:45:22 14° NW 19:48:11 10° NNW visible
